FW5161 Weather Reports


Display with metric or nautical units.
time (UTC)temp
F
wind
direction
speed
MPH
gust
MPH
rain 1hr
in
rain 24hr
in
rain mn
in
humidity
%
barometer
mb
20260903202637 63 82 3.0 9.0 0.00 0.09 0.01 69 1008.8
20260903202137 62 34 3.0 7.0 0.00 0.09 0.01 71 1008.7
20260903201638 62 26 4.0 13.0 0.00 0.09 0.01 71 1008.9
20260903201138 62 91 4.0 13.0 0.00 0.09 0.01 71 1008.8
20260903200638 62 31 3.0 10.0 0.00 0.09 0.01 71 1008.7
20260903200137 62 6 2.0 10.0 0.00 0.09 0.01 71 1008.8
20260903195909 63 35 3.0 10.0 0.00 0.09 0.01 71 1008.7
20260903195131 63 80 5.0 14.0 0.00 0.09 0.01 70 1008.7
20260903194633 63 112 4.0 14.0 0.00 0.09 0.01 70 1008.6
20260903194354 62 290 2.0 7.0 0.00 0.09 0.01 72 1008.4
20260903193631 62 94 1.0 7.0 0.00 0.09 0.01 73 1008.6
20260903193132 62 88 1.0 5.0 0.00 0.09 0.01 73 1008.5
20260903192631 62 93 2.0 6.0 0.00 0.09 0.01 71 1008.4
20260903192132 62 203 2.0 6.0 0.00 0.09 0.01 73 1008.4
20260903191632 62 295 2.0 9.0 0.00 0.09 0.01 71 1008.4
20260903191355 62 97 2.0 9.0 0.00 0.09 0.01 71 1008.3
20260903190634 63 74 1.0 5.0 0.00 0.09 0.01 71 1008.3
20260903190133 63 313 2.0 4.0 0.00 0.09 0.01 75 1008.3
20260903185901 62 328 2.0 6.0 0.00 0.09 0.01 73 1008.2
20260903185128 63 111 2.0 6.0 0.00 0.09 0.01 71 1008.3
20260903184630 63 108 2.0 8.0 0.00 0.09 0.01 70 1008.3
20260903184129 62 359 3.0 10.0 0.00 0.09 0.01 74 1008.3
20260903183630 62 20 4.0 11.0 0.00 0.09 0.01 72 1008.2
20260903183130 62 80 4.0 11.0 0.00 0.09 0.01 74 1008.1
20260903182629 62 97 4.0 13.0 0.00 0.09 0.01 74 1008.2
20260903182356 62 93 5.0 15.0 0.00 0.09 0.01 76 1008.1
20260903181629 62 99 5.0 15.0 0.00 0.09 0.01 75 1008.2
20260903181129 61 285 5.0 12.0 0.00 0.09 0.01 76 1008.2
20260903180629 61 336 5.0 13.0 0.00 0.09 0.01 77 1008.2
20260903180129 60 62 5.0 13.0 0.00 0.09 0.01 79 1008.0
20260903175629 60 23 4.0 12.0 0.00 0.09 0.01 80 1008.0
20260903175129 59 332 4.0 11.0 0.00 0.09 0.01 81 1008.0
20260903174629 58 318 4.0 11.0 0.00 0.09 0.01 81 1007.9
20260903174129 58 357 4.0 11.0 0.00 0.09 0.01 81 1007.9
20260903173629 58 72 4.0 11.0 0.00 0.09 0.01 82 1007.8
20260903173129 58 6 4.0 11.0 0.00 0.09 0.01 82 1007.8
20260903172629 58 65 4.0 10.0 0.00 0.09 0.01 82 1007.7
20260903172132 58 62 4.0 12.0 0.00 0.09 0.01 82 1007.6
20260903171624 58 48 4.0 12.0 0.00 0.09 0.01 82 1007.6
20260903171117 58 53 4.0 11.0 0.00 0.09 0.01 82 1007.7
20260903170841 58 22 3.0 14.0 0.00 0.09 0.01 82 1007.6
20260903170115 58 8 3.0 14.0 0.00 0.09 0.01 82 1007.6
20260903165616 58 52 3.0 11.0 0.00 0.09 0.01 82 1007.6
20260903165115 58 19 3.0 11.0 0.00 0.09 0.01 82 1007.7
20260903164615 58 51 3.0 9.0 0.00 0.09 0.01 83 1007.5
20260903164115 58 327 3.0 8.0 0.00 0.09 0.01 83 1007.5
20260903163842 58 353 3.0 8.0 0.00 0.09 0.01 84 1007.5
20260903163115 57 145 2.0 6.0 0.00 0.09 0.01 84 1007.4
20260903162613 57 26 1.0 6.0 0.00 0.09 0.01 84 1007.5
20260903162111 57 245 2.0 5.0 0.00 0.09 0.01 84 1007.5
20260903161108 57 26 2.0 7.0 0.00 0.09 0.01 84 1007.4
20260903160605 57 41 3.0 10.0 0.00 0.09 0.01 84 1007.3
20260903160105 57 327 3.0 10.0 0.00 0.09 0.01 84 1007.2
20260903155826 57 94 3.0 15.0 0.00 0.09 0.01 84 1007.2
20260903155102 57 78 3.0 15.0 0.00 0.09 0.01 84 1007.1
20260903154826 57 341 3.0 10.0 0.00 0.09 0.01 84 1007.0
20260903154101 57 105 3.0 11.0 0.00 0.09 0.01 84 1007.0
20260903153601 57 19 3.0 11.0 0.00 0.09 0.01 85 1007.0
20260903153059 57 14 3.0 9.0 0.00 0.09 0.01 85 1006.9
20260903152553 57 51 3.0 9.0 0.00 0.09 0.01 85 1006.9
20260903152310 57 347 2.0 7.0 0.00 0.09 0.01 85 1007.0
20260903151044 57 39 2.0 7.0 0.00 0.09 0.01 86 1007.1
20260903150543 56 88 1.0 6.0 0.00 0.09 0.01 86 1007.1
20260903150313 56 329 2.0 8.0 0.00 0.09 0.01 87 1007.0
20260903145809 56 355 2.0 8.0 0.00 0.09 0.01 87 1006.9
20260903145043 56 79 2.0 6.0 0.00 0.09 0.01 87 1006.8
20260903144543 56 96 2.0 6.0 0.00 0.09 0.01 88 1006.7
20260903144043 56 347 2.0 8.0 0.00 0.09 0.01 88 1006.7
20260903143543 56 96 2.0 8.0 0.00 0.09 0.01 88 1006.6
20260903143042 56 10 2.0 8.0 0.00 0.09 0.01 88 1006.5
20260903142543 55 64 2.0 7.0 0.00 0.09 0.01 89 1006.5
20260903142312 55 50 3.0 11.0 0.00 0.09 0.01 89 1006.4
20260903141543 55 82 3.0 11.0 0.01 0.09 0.01 89 1006.3
20260903141043 55 18 3.0 6.0 0.01 0.09 0.01 89 1006.2
20260903140543 55 54 3.0 9.0 0.01 0.09 0.01 89 1006.1
20260903140043 55 70 3.0 13.0 0.01 0.09 0.01 89 1006.1
20260903135816 55 88 3.0 13.0 0.01 0.09 0.01 89 1006.0
20260903135044 55 347 5.0 19.0 0.01 0.09 0.01 89 1005.9
20260903134543 55 95 4.0 19.0 0.01 0.09 0.01 89 1005.9
20260903134324 55 149 5.0 11.0 0.01 0.09 0.01 89 1005.8
20260903133543 55 121 5.0 11.0 0.01 0.09 0.01 89 1005.8
20260903133320 55 113 5.0 14.0 0.01 0.09 0.01 88 1005.7
20260903132546 55 305 5.0 16.0 0.01 0.09 0.01 87 1005.6
20260903132045 56 132 5.0 22.0 0.01 0.09 0.00 86 1005.7
20260903131813 56 28 5.0 22.0 0.00 0.08 0.00 85 1005.5
20260903131042 56 69 4.0 14.0 0.00 0.08 0.00 84 1005.4
20260903130542 56 26 4.0 14.0 0.00 0.08 0.00 83 1005.4
20260903130318 56 44 4.0 11.0 0.00 0.08 0.00 83 1005.3
20260903125540 57 203 4.0 18.0 0.00 0.08 0.00 82 1005.2
20260903125039 57 339 5.0 18.0 0.00 0.08 0.00 82 1005.2
20260903124540 57 22 4.0 16.0 0.00 0.08 0.00 82 1005.2
20260903124039 57 71 3.0 12.0 0.00 0.08 0.00 82 1005.3
20260903123539 57 20 2.0 16.0 0.00 0.08 0.00 82 1005.3
20260903123039 57 57 4.0 16.0 0.00 0.08 0.00 82 1005.2
20260903122804 57 74 5.0 18.0 0.00 0.08 0.00 82 1005.2
20260903122034 57 151 3.0 18.0 0.00 0.08 0.00 82 1005.2
20260903121533 57 228 2.0 10.0 0.00 0.08 0.00 82 1005.0
20260903121030 57 94 3.0 11.0 0.00 0.08 0.00 82 1005.0
20260903120531 57 26 3.0 11.0 0.00 0.08 0.00 81 1005.2
20260903120030 57 262 4.0 13.0 0.00 0.08 0.00 81 1004.9
20260903115803 57 106 5.0 13.0 0.00 0.08 0.00 81 1004.9
20260903115030 57 64 5.0 15.0 0.00 0.08 0.00 81 1004.9
20260903114529 57 123 4.0 15.0 0.00 0.08 0.00 81 1005.0
20260903114029 57 91 3.0 15.0 0.00 0.08 0.00 81 1004.9
20260903113529 57 96 4.0 15.0 0.00 0.08 0.00 81 1004.9
20260903113030 57 134 4.0 18.0 0.00 0.08 0.00 81 1004.9
20260903112528 57 88 6.0 21.0 0.00 0.08 0.00 81 1004.9
20260903112029 57 58 6.0 21.0 0.00 0.08 0.00 81 1004.8
20260903111529 57 105 5.0 17.0 0.00 0.08 0.00 81 1004.8
20260903111030 57 74 5.0 17.0 0.00 0.08 0.00 81 1004.7
20260903110525 57 147 5.0 14.0 0.00 0.08 0.00 81 1004.7
20260903110019 57 83 5.0 14.0 0.00 0.08 0.00 81 1004.6
20260903105512 57 103 6.0 16.0 0.00 0.08 0.00 81 1004.7
20260903105006 57 143 6.0 16.0 0.00 0.08 0.00 81 1004.7
20260903104503 57 122 5.0 14.0 0.00 0.08 0.00 81 1004.7
20260903104002 57 95 5.0 13.0 0.00 0.08 0.00 81 1004.7
20260903103502 57 159 5.0 20.0 0.00 0.08 0.00 81 1004.6
20260903103001 57 95 5.0 20.0 0.00 0.08 0.00 81 1004.6
20260903102504 57 96 6.0 15.0 0.00 0.08 0.00 81 1004.6
20260903102004 58 118 6.0 15.0 0.00 0.08 0.00 81 1004.6
20260903101504 57 153 6.0 15.0 0.00 0.08 0.00 81 1004.5
20260903101229 57 141 6.0 15.0 0.00 0.08 0.00 81 1004.6
20260903100502 58 70 5.0 14.0 0.00 0.08 0.00 81 1004.5
20260903100001 58 30 4.0 13.0 0.00 0.08 0.00 81 1004.6
20260903095501 58 71 6.0 19.0 0.00 0.08 0.00 81 1004.6
20260903095233 58 90 7.0 19.0 0.00 0.08 0.00 82 1004.6
20260903094501 58 85 9.0 19.0 0.00 0.08 0.00 82 1004.6
20260903094001 58 133 8.0 19.0 0.00 0.08 0.00 82 1004.5
20260903093727 58 99 7.0 17.0 0.00 0.08 0.00 82 1004.4
20260903093000 58 96 8.0 17.0 0.00 0.08 0.00 82 1004.5
20260903092501 58 120 7.0 19.0 0.00 0.08 0.00 83 1004.4
20260903092000 58 90 6.0 19.0 0.00 0.08 0.00 83 1004.5
20260903091501 58 135 4.0 11.0 0.00 0.08 0.00 83 1004.5
20260903091236 58 99 4.0 17.0 0.00 0.08 0.00 83 1004.5
20260903090501 58 90 6.0 19.0 0.00 0.08 0.00 83 1004.5
20260903090001 58 124 5.0 19.0 0.00 0.08 0.00 83 1004.4
20260903085504 58 102 4.0 16.0 0.00 0.08 0.00 83 1004.5
20260903085003 58 93 5.0 14.0 0.00 0.08 0.00 83 1004.6
20260903084731 58 175 5.0 13.0 0.00 0.08 0.00 83 1004.7
20260903084001 58 155 4.0 13.0 0.00 0.08 0.00 83 1004.7
20260903083501 57 77 4.0 13.0 0.00 0.08 0.00 84 1004.8
20260903083001 57 187 4.0 14.0 0.00 0.08 0.00 84 1004.6
20260903082502 57 137 6.0 16.0 0.00 0.08 0.00 84 1004.6
20260903082234 57 114 5.0 17.0 0.00 0.08 0.00 84 1004.5
20260903081501 57 76 4.0 17.0 0.00 0.08 0.00 84 1004.5
20260903081233 57 112 5.0 14.0 0.00 0.08 0.00 84 1004.5
20260903080501 57 227 4.0 14.0 0.00 0.08 0.00 84 1004.6
20260903080010 57 195 4.0 14.0 0.00 0.08 0.00 84 1004.5
20260903075510 57 89 6.0 18.0 0.00 0.08 0.00 84 1004.6
20260903075000 57 80 6.0 18.0 0.00 0.08 0.00 84 1004.5
20260903074456 57 83 5.0 16.0 0.00 0.08 0.00 84 1004.5
20260903073942 57 101 5.0 14.0 0.00 0.08 0.00 84 1004.5
20260903073436 57 153 5.0 14.0 0.00 0.08 0.00 85 1004.4
20260903072929 57 99 6.0 18.0 0.00 0.08 0.00 85 1004.4
20260903072430 57 139 5.0 18.0 0.00 0.08 0.00 85 1004.4
20260903071930 57 128 4.0 15.0 0.00 0.08 0.00 85 1004.4
20260903071430 57 134 4.0 15.0 0.00 0.08 0.00 85 1004.4
20260903070929 57 99 3.0 8.0 0.00 0.08 0.00 85 1004.4
20260903070429 57 86 3.0 8.0 0.00 0.08 0.00 86 1004.5
20260903070154 57 127 3.0 9.0 0.00 0.08 0.08 85 1004.5
20260903065434 57 190 3.0 9.0 0.00 0.08 0.08 86 1004.4
20260903064931 57 93 3.0 8.0 0.00 0.08 0.08 86 1004.4
20260903064429 57 31 3.0 11.0 0.00 0.08 0.08 86 1004.4
20260903063929 57 115 4.0 11.0 0.00 0.08 0.08 86 1004.4
20260903063428 57 92 4.0 13.0 0.00 0.08 0.08 86 1004.4
20260903062929 57 142 4.0 13.0 0.00 0.08 0.08 86 1004.3
20260903062433 57 151 4.0 12.0 0.00 0.08 0.08 87 1004.5
20260903061929 57 155 5.0 12.0 0.00 0.08 0.08 87 1004.6
20260903061429 57 139 4.0 10.0 0.00 0.08 0.08 87 1004.6
20260903060929 57 93 5.0 15.0 0.00 0.08 0.08 87 1004.5
20260903060423 57 101 5.0 15.0 0.00 0.08 0.08 87 1004.5
20260903055917 57 62 6.0 17.0 0.00 0.08 0.08 87 1004.5
20260903055410 57 123 6.0 17.0 0.00 0.08 0.08 87 1004.5
20260903055137 57 90 5.0 20.0 0.00 0.08 0.08 87 1004.5
20260903054411 57 101 4.0 20.0 0.00 0.08 0.08 87 1004.6
20260903053640 57 134 6.0 15.0 0.00 0.08 0.08 87 1004.6
20260903052910 57 89 5.0 17.0 0.00 0.08 0.08 87 1004.5
20260903052411 57 99 6.0 17.0 0.00 0.08 0.08 87 1004.6
20260903051910 57 101 8.0 17.0 0.00 0.08 0.08 87 1004.6
20260903051412 57 178 8.0 17.0 0.00 0.08 0.08 87 1004.5
20260903050911 57 100 7.0 15.0 0.00 0.08 0.08 87 1004.3
20260903050411 57 79 6.0 13.0 0.00 0.08 0.08 87 1004.3
20260903045912 57 94 8.0 17.0 0.00 0.08 0.08 86 1004.3
20260903044911 57 102 7.0 19.0 0.00 0.08 0.08 85 1004.3
20260903044639 57 81 8.0 19.0 0.00 0.08 0.08 85 1004.2
20260903044133 57 207 9.0 19.0 0.00 0.08 0.08 84 1004.3
20260903043407 57 100 7.0 16.0 0.00 0.08 0.08 84 1004.1
20260903042406 58 115 8.0 17.0 0.00 0.08 0.08 83 1003.8
20260903042133 58 117 9.0 16.0 0.00 0.08 0.08 82 1003.7
20260903041407 57 139 9.0 14.0 0.00 0.08 0.08 83 1003.6
20260903040906 57 120 8.0 14.0 0.00 0.08 0.08 83 1003.6
20260903040407 57 143 7.0 13.0 0.00 0.08 0.08 84 1003.4
20260903035907 57 139 7.0 11.0 0.00 0.08 0.08 84 1003.3
20260903035407 57 139 7.0 13.0 0.00 0.08 0.08 83 1003.1
20260903034903 57 128 7.0 14.0 0.00 0.08 0.08 84 1002.9
20260903034402 58 152 7.0 14.0 0.00 0.08 0.08 82 1002.9
20260903033904 58 140 7.0 11.0 0.00 0.08 0.08 83 1002.9
20260903033403 58 156 6.0 11.0 0.00 0.08 0.08 82 1002.8
20260903033123 58 146 7.0 12.0 0.00 0.08 0.08 83 1002.7
20260903032403 58 189 8.0 14.0 0.00 0.08 0.08 83 1002.6
20260903031903 58 106 8.0 18.0 0.00 0.08 0.08 84 1002.5
20260903031403 58 137 7.0 18.0 0.00 0.08 0.08 84 1002.4
20260903031125 58 105 6.0 13.0 0.00 0.08 0.08 85 1002.4
20260903030627 58 114 6.0 17.0 0.00 0.08 0.08 84 1002.3
20260903025901 59 151 8.0 17.0 0.00 0.08 0.08 84 1002.3
20260903025401 59 110 7.0 17.0 0.00 0.08 0.08 84 1002.2
20260903024902 59 82 7.0 20.0 0.00 0.08 0.08 85 1002.1
20260903024630 59 102 8.0 20.0 0.00 0.08 0.08 84 1001.9
20260903023901 59 105 10.0 22.0 0.00 0.08 0.08 84 1001.9
20260903023401 59 108 9.0 22.0 0.00 0.08 0.08 84 1001.5
20260903022904 59 77 9.0 21.0 0.00 0.08 0.08 84 1001.3
20260903022404 59 128 8.0 23.0 0.00 0.08 0.08 84 1001.2
20260903021904 59 99 7.0 23.0 0.00 0.08 0.08 84 1001.3
20260903021402 59 93 7.0 19.0 0.00 0.08 0.08 84 1000.9
20260903021130 59 93 6.0 19.0 0.00 0.08 0.08 85 1000.8
20260903020402 59 122 5.0 15.0 0.00 0.08 0.08 85 1000.8
20260903015901 59 80 6.0 20.0 0.00 0.08 0.08 85 1000.7
20260903015401 59 42 6.0 20.0 0.00 0.08 0.08 85 1000.8
20260903014902 59 98 5.0 12.0 0.00 0.08 0.08 85 1000.5
20260903014401 59 100 5.0 13.0 0.00 0.08 0.08 85 1000.4
20260903013901 59 116 3.0 13.0 0.00 0.08 0.08 86 1000.3
20260903013401 58 303 6.0 27.0 0.00 0.08 0.08 86 1000.3
20260903012900 59 105 8.0 27.0 0.01 0.08 0.08 86 1000.2
20260903012402 58 110 7.0 21.0 0.01 0.08 0.08 86 1000.2
20260903011901 58 123 6.0 15.0 0.02 0.08 0.08 87 999.8
20260903011402 58 123 6.0 16.0 0.03 0.08 0.08 88 1000.1
20260903010900 58 77 6.0 17.0 0.04 0.08 0.08 89 999.9
20260903010401 58 139 6.0 17.0 0.05 0.08 0.08 89 999.9
20260903010125 57 114 6.0 16.0 0.05 0.08 0.08 89 1000.0
20260903005619 57 359 7.0 16.0 0.06 0.08 0.08 89 1000.1
20260903004900 57 55 8.0 16.0 0.07 0.08 0.08 89 1000.0
20260903004401 57 133 7.0 18.0 0.07 0.08 0.08 89 999.9
20260903003900 57 222 6.0 18.0 0.07 0.08 0.08 90 1000.1
20260903003401 57 58 6.0 16.0 0.08 0.08 0.08 90 1000.3
20260903003122 57 68 5.0 13.0 0.07 0.07 0.07 90 1000.4
20260903002401 57 105 4.0 13.0 0.07 0.07 0.07 89 1000.4
20260903001859 57 334 3.0 13.0 0.06 0.06 0.06 89 1000.3
20260903001353 57 49 3.0 9.0 0.05 0.05 0.05 89 1000.5
20260903000848 58 21 4.0 9.0 0.04 0.04 0.04 89 1000.4
20260903000342 58 359 5.0 12.0 0.03 0.03 0.03 87 1000.4
20260902235836 58 349 4.0 12.0 0.03 0.03 0.03 87 1000.4
20260902235332 58 25 4.0 14.0 0.02 0.02 0.02 86 1000.5
20260902234832 59 33 4.0 14.0 0.01 0.01 0.01 86 1000.4
20260902234553 59 39 5.0 14.0 0.01 0.01 0.01 84 1000.5
20260902233833 60 44 5.0 14.0 0.01 0.01 0.00 82 1000.7
20260902233333 60 332 4.0 15.0 0.00 0.00 0.00 81 1000.6
20260902232834 61 81 4.0 15.0 0.00 0.00 0.00 78 1000.6
20260902232332 62 90 4.0 11.0 0.00 0.00 0.00 77 1000.7
20260902231830 62 60 4.0 11.0 0.00 0.00 0.00 76 1000.6
20260902231330 63 18 5.0 13.0 0.00 0.00 0.00 75 1000.5
20260902230830 63 95 6.0 18.0 0.00 0.00 0.00 74 1000.5
20260902230328 63 318 5.0 18.0 0.00 0.00 0.00 72 1000.7
20260902225829 63 13 5.0 13.0 0.00 0.00 0.00 72 1000.7
20260902225329 64 341 5.0 18.0 0.00 0.00 0.00 72 1000.6
20260902224829 64 35 4.0 18.0 0.00 0.00 0.00 71 1000.7
20260902224329 64 114 4.0 11.0 0.00 0.00 0.00 70 1000.7
20260902223829 64 32 4.0 11.0 0.00 0.00 0.00 70 1000.5
20260902223330 65 80 3.0 10.0 0.00 0.00 0.00 70 1000.4
20260902222826 65 325 4.0 13.0 0.00 0.00 0.00 70 1000.6
20260902222320 65 10 6.0 20.0 0.00 0.00 0.00 69 1000.5
20260902221814 65 24 6.0 20.0 0.00 0.00 0.00 69 1000.8
20260902221308 65 112 4.0 16.0 0.00 0.00 0.00 68 1000.8
20260902220802 65 4 4.0 9.0 0.00 0.00 0.00 69 1000.8
20260902220302 65 60 3.0 11.0 0.00 0.00 0.00 69 1000.9
20260902215802 65 48 3.0 11.0 0.00 0.00 0.00 69 1000.8
20260902215306 66 13 4.0 15.0 0.00 0.00 0.00 68 1001.0
20260902214802 66 336 4.0 15.0 0.00 0.00 0.00 67 1000.9
20260902214301 66 70 3.0 10.0 0.00 0.00 0.00 66 1000.9
20260902213802 67 16 3.0 10.0 0.00 0.00 0.00 65 1000.9
20260902213301 66 356 4.0 10.0 0.00 0.00 0.00 65 1001.0
20260902212805 66 125 4.0 10.0 0.00 0.00 0.00 64 1001.1
20260902212305 67 345 4.0 13.0 0.00 0.00 0.00 63 1001.2
20260902211803 67 101 4.0 13.0 0.00 0.00 0.00 62 1001.1
20260902211303 67 87 4.0 10.0 0.00 0.00 0.00 61 1000.9
20260902210804 67 41 4.0 11.0 0.00 0.00 0.00 62 1000.9
20260902210530 67 65 4.0 11.0 0.00 0.00 0.00 61 1000.8
20260902205802 67 182 4.0 11.0 0.00 0.00 0.00 62 1000.8
20260902205302 67 349 5.0 16.0 0.00 0.00 0.00 62 1000.9
20260902204801 67 276 4.0 16.0 0.00 0.00 0.00 62 1001.0
20260902204530 67 147 5.0 15.0 0.00 0.00 0.00 62 1001.0
20260902203802 67 359 7.0 24.0 0.00 0.00 0.00 62 1001.1
20260902203542 67 90 7.0 24.0 0.00 0.00 0.00 61 1001.1
20260902202802 68 101 5.0 22.0 0.00 0.00 0.00 61 1001.1